owner,sensor,date,latitude,longitude,sea_surface_height_above_sea_level,qcFlag 
TCOON,ioos:station:TCOON:009:1,2015-05-01T00:12:00Z,27.8398,-97.0727,1.599,1111122 
TCOON,ioos:station:TCOON:009:1,2015-05-01T01:12:00Z,27.8398,-97.0727,1.547,1111122 
TCOON,ioos:station:TCOON:009:1,2015-05-01T02:12:00Z,27.8398,-97.0727,1.539,1111122 
TCOON,ioos:station:TCOON:009:1,2015-05-01T03:12:00Z,27.8398,-97.0727,1.537,1111122 
TCOON,ioos:station:TCOON:009:1,2015-05-01T04:18:00Z,27.8398,-97.0727,1.617,1111122 
TCOON,ioos:station:TCOON:009:1,2015-05-01T05:18:00Z,27.8398,-97.0727,1.662,1111122 
TCOON,ioos:station:TCOON:009:1,2015-05-01T06:18:00Z,27.8398,-97.0727,1.703,1111122 
TCOON,ioos:station:TCOON:009:1,2015-05-01T07:12:00Z,27.8398,-97.0727,1.707,1111122 
TCOON,ioos:station:TCOON:009:1,2015-05-01T08:12:00Z,27.8398,-97.0727,1.704,1111122 
TCOON,ioos:station:TCOON:009:1,2015-05-01T09:18:00Z,27.8398,-97.0727,1.717,1111122 
TCOON,ioos:station:TCOON:009:1,2015-05-01T10:12:00Z,27.8398,-97.0727,1.717,1111122 
TCOON,ioos:station:TCOON:009:1,2015-05-01T11:12:00Z,27.8398,-97.0727,1.693,1111122 
TCOON,ioos:station:TCOON:009:1,2015-05-01T12:12:00Z,27.8398,-97.0727,1.694,1111122 
TCOON,ioos:station:TCOON:009:1,2015-05-01T14:18:00Z,27.8398,-97.0727,1.69,1111122 
TCOON,ioos:station:TCOON:009:1,2015-05-01T15:18:00Z,27.8398,-97.0727,1.679,1111122 
TCOON,ioos:station:TCOON:009:1,2015-05-01T16:18:00Z,27.8398,-97.0727,1.703,1111122 
TCOON,ioos:station:TCOON:009:1,2015-05-01T17:24:00Z,27.8398,-97.0727,1.68,1111122 
TCOON,ioos:station:TCOON:009:1,2015-05-01T18:18:00Z,27.8398,-97.0727,1.687,1111122 
TCOON,ioos:station:TCOON:009:1,2015-05-01T19:18:00Z,27.8398,-97.0727,1.705,1111122 
TCOON,ioos:station:TCOON:009:1,2015-05-01T20:12:00Z,27.8398,-97.0727,1.696,1111122 
TCOON,ioos:station:TCOON:009:1,2015-05-01T21:12:00Z,27.8398,-97.0727,1.659,1111122 
TCOON,ioos:station:TCOON:009:1,2015-05-01T22:18:00Z,27.8398,-97.0727,1.594,1111122 
TCOON,ioos:station:TCOON:009:1,2015-05-01T23:12:00Z,27.8398,-97.0727,1.561,1111122 
TCOON,ioos:station:TCOON:009:1,2015-05-02T00:12:00Z,27.8398,-97.0727,1.534,1111122 
TCOON,ioos:station:TCOON:009:1,2015-05-02T01:18:00Z,27.8398,-97.0727,1.488,1111122 
TCOON,ioos:station:TCOON:009:1,2015-05-02T02:12:00Z,27.8398,-97.0727,1.493,1111122 
TCOON,ioos:station:TCOON:009:1,2015-05-02T03:12:00Z,27.8398,-97.0727,1.512,1111122 
TCOON,ioos:station:TCOON:009:1,2015-05-02T04:12:00Z,27.8398,-97.0727,1.542,1111122 
TCOON,ioos:station:TCOON:009:1,2015-05-02T05:18:00Z,27.8398,-97.0727,1.602,1111122 
TCOON,ioos:station:TCOON:009:1,2015-05-02T06:18:00Z,27.8398,-97.0727,1.661,1111122 
TCOON,ioos:station:TCOON:009:1,2015-05-02T07:18:00Z,27.8398,-97.0727,1.673,1111122 
TCOON,ioos:station:TCOON:009:1,2015-05-02T08:18:00Z,27.8398,-97.0727,1.684,1111122 
TCOON,ioos:station:TCOON:009:1,2015-05-02T09:12:00Z,27.8398,-97.0727,1.681,1111122 
TCOON,ioos:station:TCOON:009:1,2015-05-02T10:18:00Z,27.8398,-97.0727,1.67,1111122 
TCOON,ioos:station:TCOON:009:1,2015-05-02T11:12:00Z,27.8398,-97.0727,1.664,1111122 
TCOON,ioos:station:TCOON:009:1,2015-05-02T12:12:00Z,27.8398,-97.0727,1.673,1111122 
TCOON,ioos:station:TCOON:009:1,2015-05-02T13:12:00Z,27.8398,-97.0727,1.648,1111122 
TCOON,ioos:station:TCOON:009:1,2015-05-02T14:18:00Z,27.8398,-97.0727,1.662,1111122 
TCOON,ioos:station:TCOON:009:1,2015-05-02T15:12:00Z,27.8398,-97.0727,1.665,1111122 
TCOON,ioos:station:TCOON:009:1,2015-05-02T16:12:00Z,27.8398,-97.0727,1.612,1111122 
TCOON,ioos:station:TCOON:009:1,2015-05-02T17:18:00Z,27.8398,-97.0727,1.664,1111122 
TCOON,ioos:station:TCOON:009:1,2015-05-02T18:18:00Z,27.8398,-97.0727,1.652,1111122 
TCOON,ioos:station:TCOON:009:1,2015-05-02T19:12:00Z,27.8398,-97.0727,1.641,1111122 
TCOON,ioos:station:TCOON:009:1,2015-05-02T20:12:00Z,27.8398,-97.0727,1.649,1111122 
TCOON,ioos:station:TCOON:009:1,2015-05-02T21:18:00Z,27.8398,-97.0727,1.625,1111122 
TCOON,ioos:station:TCOON:009:1,2015-05-02T22:18:00Z,27.8398,-97.0727,1.583,1111122 
TCOON,ioos:station:TCOON:009:1,2015-05-02T23:12:00Z,27.8398,-97.0727,1.537,1111122 
TCOON,ioos:station:TCOON:009:1,2015-05-03T00:12:00Z,27.8398,-97.0727,1.497,1111122 
TCOON,ioos:station:TCOON:009:1,2015-05-03T01:12:00Z,27.8398,-97.0727,1.463,1111122 
TCOON,ioos:station:TCOON:009:1,2015-05-03T02:12:00Z,27.8398,-97.0727,1.443,1111122 
TCOON,ioos:station:TCOON:009:1,2015-05-03T03:12:00Z,27.8398,-97.0727,1.46,1111122 
TCOON,ioos:station:TCOON:009:1,2015-05-03T04:18:00Z,27.8398,-97.0727,1.511,1111122 
TCOON,ioos:station:TCOON:009:1,2015-05-03T05:18:00Z,27.8398,-97.0727,1.584,1111122 
TCOON,ioos:station:TCOON:009:1,2015-05-03T07:06:00Z,27.8398,-97.0727,1.666,1111122 
TCOON,ioos:station:TCOON:009:1,2015-05-03T08:18:00Z,27.8398,-97.0727,1.711,1111122 
TCOON,ioos:station:TCOON:009:1,2015-05-03T09:12:00Z,27.8398,-97.0727,1.698,1111122 
TCOON,ioos:station:TCOON:009:1,2015-05-03T10:12:00Z,27.8398,-97.0727,1.721,1111122 
TCOON,ioos:station:TCOON:009:1,2015-05-03T11:12:00Z,27.8398,-97.0727,1.712,1111122 
TCOON,ioos:station:TCOON:009:1,2015-05-03T12:12:00Z,27.8398,-97.0727,1.706,1111122 
TCOON,ioos:station:TCOON:009:1,2015-05-03T13:12:00Z,27.8398,-97.0727,1.704,1111122 
TCOON,ioos:station:TCOON:009:1,2015-05-03T14:18:00Z,27.8398,-97.0727,1.705,1111122 
TCOON,ioos:station:TCOON:009:1,2015-05-03T15:18:00Z,27.8398,-97.0727,1.709,1111122 
TCOON,ioos:station:TCOON:009:1,2015-05-03T16:18:00Z,27.8398,-97.0727,1.709,1111122 
TCOON,ioos:station:TCOON:009:1,2015-05-03T17:12:00Z,27.8398,-97.0727,1.706,1111122 
TCOON,ioos:station:TCOON:009:1,2015-05-03T18:12:00Z,27.8398,-97.0727,1.723,1111122 
TCOON,ioos:station:TCOON:009:1,2015-05-03T19:18:00Z,27.8398,-97.0727,1.705,1111122 
TCOON,ioos:station:TCOON:009:1,2015-05-03T20:18:00Z,27.8398,-97.0727,1.698,1111122 
TCOON,ioos:station:TCOON:009:1,2015-05-03T21:12:00Z,27.8398,-97.0727,1.677,1111122 
TCOON,ioos:station:TCOON:009:1,2015-05-03T22:18:00Z,27.8398,-97.0727,1.621,1111122 
TCOON,ioos:station:TCOON:009:1,2015-05-03T23:12:00Z,27.8398,-97.0727,1.571,1111122 
TCOON,ioos:station:TCOON:009:1,2015-05-04T00:12:00Z,27.8398,-97.0727,1.535,1111122 
TCOON,ioos:station:TCOON:009:1,2015-05-04T01:12:00Z,27.8398,-97.0727,1.485,1111122 
TCOON,ioos:station:TCOON:009:1,2015-05-04T02:12:00Z,27.8398,-97.0727,1.485,1111122 
TCOON,ioos:station:TCOON:009:1,2015-05-04T03:12:00Z,27.8398,-97.0727,1.476,1111122 
TCOON,ioos:station:TCOON:009:1,2015-05-04T04:12:00Z,27.8398,-97.0727,1.515,1111122 
TCOON,ioos:station:TCOON:009:1,2015-05-04T05:18:00Z,27.8398,-97.0727,1.572,1111122 
TCOON,ioos:station:TCOON:009:1,2015-05-04T06:18:00Z,27.8398,-97.0727,1.626,1111122 
TCOON,ioos:station:TCOON:009:1,2015-05-04T07:18:00Z,27.8398,-97.0727,1.701,1111122 
TCOON,ioos:station:TCOON:009:1,2015-05-04T08:18:00Z,27.8398,-97.0727,1.754,1111122 
TCOON,ioos:station:TCOON:009:1,2015-05-04T09:12:00Z,27.8398,-97.0727,1.785,1111122 
TCOON,ioos:station:TCOON:009:1,2015-05-04T10:12:00Z,27.8398,-97.0727,1.778,1111122 
TCOON,ioos:station:TCOON:009:1,2015-05-04T11:12:00Z,27.8398,-97.0727,1.783,1111122 
TCOON,ioos:station:TCOON:009:1,2015-05-04T12:12:00Z,27.8398,-97.0727,1.78,1111122 
TCOON,ioos:station:TCOON:009:1,2015-05-04T13:12:00Z,27.8398,-97.0727,1.778,1111122 
TCOON,ioos:station:TCOON:009:1,2015-05-04T14:12:00Z,27.8398,-97.0727,1.794,1111122 
TCOON,ioos:station:TCOON:009:1,2015-05-04T15:18:00Z,27.8398,-97.0727,1.778,1111122 
TCOON,ioos:station:TCOON:009:1,2015-05-04T16:18:00Z,27.8398,-97.0727,1.793,1111122 
TCOON,ioos:station:TCOON:009:1,2015-05-04T17:18:00Z,27.8398,-97.0727,1.813,1111122 
TCOON,ioos:station:TCOON:009:1,2015-05-04T18:18:00Z,27.8398,-97.0727,1.785,1111122 
TCOON,ioos:station:TCOON:009:1,2015-05-04T19:18:00Z,27.8398,-97.0727,1.79,1111122 
TCOON,ioos:station:TCOON:009:1,2015-05-04T20:18:00Z,27.8398,-97.0727,1.788,1111122 
TCOON,ioos:station:TCOON:009:1,2015-05-04T21:12:00Z,27.8398,-97.0727,1.77,1111122 
TCOON,ioos:station:TCOON:009:1,2015-05-04T22:18:00Z,27.8398,-97.0727,1.741,1111122 
TCOON,ioos:station:TCOON:009:1,2015-05-04T23:12:00Z,27.8398,-97.0727,1.693,1111122 
TCOON,ioos:station:TCOON:009:1,2015-05-05T00:12:00Z,27.8398,-97.0727,1.62,1111122 
TCOON,ioos:station:TCOON:009:1,2015-05-05T01:12:00Z,27.8398,-97.0727,1.577,1111122 
TCOON,ioos:station:TCOON:009:1,2015-05-05T02:12:00Z,27.8398,-97.0727,1.547,1111122 
TCOON,ioos:station:TCOON:009:1,2015-05-05T03:12:00Z,27.8398,-97.0727,1.551,1111122 
TCOON,ioos:station:TCOON:009:1,2015-05-05T04:12:00Z,27.8398,-97.0727,1.557,1111122 
TCOON,ioos:station:TCOON:009:1,2015-05-05T05:18:00Z,27.8398,-97.0727,1.603,1111122 
TCOON,ioos:station:TCOON:009:1,2015-05-05T06:18:00Z,27.8398,-97.0727,1.67,1111122 
TCOON,ioos:station:TCOON:009:1,2015-05-05T07:12:00Z,27.8398,-97.0727,1.711,1111122 
TCOON,ioos:station:TCOON:009:1,2015-05-05T08:18:00Z,27.8398,-97.0727,1.798,1111122 
TCOON,ioos:station:TCOON:009:1,2015-05-05T09:12:00Z,27.8398,-97.0727,1.823,1111122 
TCOON,ioos:station:TCOON:009:1,2015-05-05T10:12:00Z,27.8398,-97.0727,1.844,1111122 
TCOON,ioos:station:TCOON:009:1,2015-05-05T11:12:00Z,27.8398,-97.0727,1.87,1111122 
TCOON,ioos:station:TCOON:009:1,2015-05-05T12:18:00Z,27.8398,-97.0727,1.882,1111122 
TCOON,ioos:station:TCOON:009:1,2015-05-05T13:12:00Z,27.8398,-97.0727,1.886,1111122 
TCOON,ioos:station:TCOON:009:1,2015-05-05T14:12:00Z,27.8398,-97.0727,1.9,1111122 
TCOON,ioos:station:TCOON:009:1,2015-05-05T15:18:00Z,27.8398,-97.0727,1.911,1111122 
TCOON,ioos:station:TCOON:009:1,2015-05-05T16:18:00Z,27.8398,-97.0727,1.906,1111122 
TCOON,ioos:station:TCOON:009:1,2015-05-05T17:18:00Z,27.8398,-97.0727,1.897,1111122 
TCOON,ioos:station:TCOON:009:1,2015-05-05T18:18:00Z,27.8398,-97.0727,1.887,1111122 
TCOON,ioos:station:TCOON:009:1,2015-05-05T19:18:00Z,27.8398,-97.0727,1.915,1111122 
TCOON,ioos:station:TCOON:009:1,2015-05-05T20:12:00Z,27.8398,-97.0727,1.915,1111122 
TCOON,ioos:station:TCOON:009:1,2015-05-05T21:18:00Z,27.8398,-97.0727,1.903,1111122 
TCOON,ioos:station:TCOON:009:1,2015-05-05T22:18:00Z,27.8398,-97.0727,1.895,1111122 
TCOON,ioos:station:TCOON:009:1,2015-05-05T23:12:00Z,27.8398,-97.0727,1.833,1111122 
TCOON,ioos:station:TCOON:009:1,2015-05-06T00:12:00Z,27.8398,-97.0727,1.782,1111122 
TCOON,ioos:station:TCOON:009:1,2015-05-06T01:12:00Z,27.8398,-97.0727,1.73,1111122 
TCOON,ioos:station:TCOON:009:1,2015-05-06T02:12:00Z,27.8398,-97.0727,1.703,1111122 
TCOON,ioos:station:TCOON:009:1,2015-05-06T03:12:00Z,27.8398,-97.0727,1.677,1111122 
TCOON,ioos:station:TCOON:009:1,2015-05-06T04:12:00Z,27.8398,-97.0727,1.67,1111122 
TCOON,ioos:station:TCOON:009:1,2015-05-06T05:18:00Z,27.8398,-97.0727,1.688,1111122 
TCOON,ioos:station:TCOON:009:1,2015-05-06T06:30:00Z,27.8398,-97.0727,1.753,1111122 
TCOON,ioos:station:TCOON:009:1,2015-05-06T07:18:00Z,27.8398,-97.0727,1.808,1111122 
TCOON,ioos:station:TCOON:009:1,2015-05-06T08:18:00Z,27.8398,-97.0727,1.861,1111122 
TCOON,ioos:station:TCOON:009:1,2015-05-06T09:12:00Z,27.8398,-97.0727,1.91,1111122 
TCOON,ioos:station:TCOON:009:1,2015-05-06T10:12:00Z,27.8398,-97.0727,1.952,1111122 
TCOON,ioos:station:TCOON:009:1,2015-05-06T11:12:00Z,27.8398,-97.0727,1.973,1111122 
TCOON,ioos:station:TCOON:009:1,2015-05-06T12:12:00Z,27.8398,-97.0727,2.021,1111122 
TCOON,ioos:station:TCOON:009:1,2015-05-06T13:18:00Z,27.8398,-97.0727,2.004,1111122 
TCOON,ioos:station:TCOON:009:1,2015-05-06T14:12:00Z,27.8398,-97.0727,1.996,1111122 
TCOON,ioos:station:TCOON:009:1,2015-05-06T15:12:00Z,27.8398,-97.0727,1.98,1111122 
TCOON,ioos:station:TCOON:009:1,2015-05-06T16:12:00Z,27.8398,-97.0727,2.028,1111122 
TCOON,ioos:station:TCOON:009:1,2015-05-06T17:18:00Z,27.8398,-97.0727,1.972,1111122 
TCOON,ioos:station:TCOON:009:1,2015-05-06T18:18:00Z,27.8398,-97.0727,1.986,1111122 
TCOON,ioos:station:TCOON:009:1,2015-05-06T19:18:00Z,27.8398,-97.0727,1.971,1111122 
TCOON,ioos:station:TCOON:009:1,2015-05-06T20:12:00Z,27.8398,-97.0727,1.989,1111122 
TCOON,ioos:station:TCOON:009:1,2015-05-06T21:18:00Z,27.8398,-97.0727,1.961,1111122 
TCOON,ioos:station:TCOON:009:1,2015-05-06T22:24:00Z,27.8398,-97.0727,1.937,1111122 
TCOON,ioos:station:TCOON:009:1,2015-05-06T23:12:00Z,27.8398,-97.0727,1.878,1111122 
TCOON,ioos:station:TCOON:009:1,2015-05-07T00:12:00Z,27.8398,-97.0727,1.841,1111122 
TCOON,ioos:station:TCOON:009:1,2015-05-07T01:12:00Z,27.8398,-97.0727,1.745,1111122 
TCOON,ioos:station:TCOON:009:1,2015-05-07T02:18:00Z,27.8398,-97.0727,1.744,1111122 
TCOON,ioos:station:TCOON:009:1,2015-05-07T03:12:00Z,27.8398,-97.0727,1.716,1111122 
TCOON,ioos:station:TCOON:009:1,2015-05-07T04:18:00Z,27.8398,-97.0727,1.709,1111122 
TCOON,ioos:station:TCOON:009:1,2015-05-07T05:12:00Z,27.8398,-97.0727,1.709,1111122 
TCOON,ioos:station:TCOON:009:1,2015-05-07T06:30:00Z,27.8398,-97.0727,1.738,1111122 
TCOON,ioos:station:TCOON:009:1,2015-05-07T07:12:00Z,27.8398,-97.0727,1.793,1111122 
TCOON,ioos:station:TCOON:009:1,2015-05-07T08:18:00Z,27.8398,-97.0727,1.882,1111122 
TCOON,ioos:station:TCOON:009:1,2015-05-07T09:18:00Z,27.8398,-97.0727,1.925,1111122 
TCOON,ioos:station:TCOON:009:1,2015-05-07T10:12:00Z,27.8398,-97.0727,1.975,1111122 
TCOON,ioos:station:TCOON:009:1,2015-05-07T11:12:00Z,27.8398,-97.0727,2.018,1111122 
TCOON,ioos:station:TCOON:009:1,2015-05-07T12:18:00Z,27.8398,-97.0727,2.013,1111122 
TCOON,ioos:station:TCOON:009:1,2015-05-07T13:12:00Z,27.8398,-97.0727,2.042,1111122 
TCOON,ioos:station:TCOON:009:1,2015-05-07T14:12:00Z,27.8398,-97.0727,2.023,1111122 
TCOON,ioos:station:TCOON:009:1,2015-05-07T15:18:00Z,27.8398,-97.0727,2.027,1111122 
TCOON,ioos:station:TCOON:009:1,2015-05-07T16:18:00Z,27.8398,-97.0727,2.013,1111122 
TCOON,ioos:station:TCOON:009:1,2015-05-07T17:18:00Z,27.8398,-97.0727,2.028,1111122 
TCOON,ioos:station:TCOON:009:1,2015-05-07T18:18:00Z,27.8398,-97.0727,2.002,1111122 
TCOON,ioos:station:TCOON:009:1,2015-05-07T19:12:00Z,27.8398,-97.0727,1.994,1111122 
TCOON,ioos:station:TCOON:009:1,2015-05-07T20:12:00Z,27.8398,-97.0727,1.996,1111122 
TCOON,ioos:station:TCOON:009:1,2015-05-07T21:18:00Z,27.8398,-97.0727,1.991,1111122 
TCOON,ioos:station:TCOON:009:1,2015-05-07T22:24:00Z,27.8398,-97.0727,1.959,1111122 
TCOON,ioos:station:TCOON:009:1,2015-05-07T23:12:00Z,27.8398,-97.0727,1.908,1111122 
TCOON,ioos:station:TCOON:009:1,2015-05-08T00:12:00Z,27.8398,-97.0727,1.843,1111122 
TCOON,ioos:station:TCOON:009:1,2015-05-08T01:12:00Z,27.8398,-97.0727,1.791,1111122 
TCOON,ioos:station:TCOON:009:1,2015-05-08T02:12:00Z,27.8398,-97.0727,1.721,1111122 
TCOON,ioos:station:TCOON:009:1,2015-05-08T03:12:00Z,27.8398,-97.0727,1.689,1111122 
TCOON,ioos:station:TCOON:009:1,2015-05-08T04:12:00Z,27.8398,-97.0727,1.662,1111122 
TCOON,ioos:station:TCOON:009:1,2015-05-08T05:18:00Z,27.8398,-97.0727,1.651,1111122 
TCOON,ioos:station:TCOON:009:1,2015-05-08T06:18:00Z,27.8398,-97.0727,1.663,1111122 
TCOON,ioos:station:TCOON:009:1,2015-05-08T07:12:00Z,27.8398,-97.0727,1.698,1111122 
TCOON,ioos:station:TCOON:009:1,2015-05-08T08:18:00Z,27.8398,-97.0727,1.741,1111122 
TCOON,ioos:station:TCOON:009:1,2015-05-08T09:12:00Z,27.8398,-97.0727,1.805,1111122 
TCOON,ioos:station:TCOON:009:1,2015-05-08T10:18:00Z,27.8398,-97.0727,1.887,1111122 
TCOON,ioos:station:TCOON:009:1,2015-05-08T11:18:00Z,27.8398,-97.0727,1.969,1111122 
TCOON,ioos:station:TCOON:009:1,2015-05-08T12:18:00Z,27.8398,-97.0727,1.976,1111122 
TCOON,ioos:station:TCOON:009:1,2015-05-08T13:12:00Z,27.8398,-97.0727,2.005,1111122 
TCOON,ioos:station:TCOON:009:1,2015-05-08T14:24:00Z,27.8398,-97.0727,2.007,1111122 
TCOON,ioos:station:TCOON:009:1,2015-05-08T15:12:00Z,27.8398,-97.0727,2.02,1111122 
TCOON,ioos:station:TCOON:009:1,2015-05-08T16:18:00Z,27.8398,-97.0727,2.043,1111122 
TCOON,ioos:station:TCOON:009:1,2015-05-08T17:18:00Z,27.8398,-97.0727,2.022,1111122 
TCOON,ioos:station:TCOON:009:1,2015-05-08T18:18:00Z,27.8398,-97.0727,2.008,1111122 
TCOON,ioos:station:TCOON:009:1,2015-05-08T19:18:00Z,27.8398,-97.0727,2.003,1111122 
TCOON,ioos:station:TCOON:009:1,2015-05-08T20:12:00Z,27.8398,-97.0727,2.015,1111122 
TCOON,ioos:station:TCOON:009:1,2015-05-08T21:12:00Z,27.8398,-97.0727,1.991,1111122 
TCOON,ioos:station:TCOON:009:1,2015-05-08T22:12:00Z,27.8398,-97.0727,1.99,1111122 
TCOON,ioos:station:TCOON:009:1,2015-05-08T23:12:00Z,27.8398,-97.0727,1.958,1111122 
TCOON,ioos:station:TCOON:009:1,2015-05-09T00:12:00Z,27.8398,-97.0727,1.915,1111122 
TCOON,ioos:station:TCOON:009:1,2015-05-09T01:12:00Z,27.8398,-97.0727,1.885,1111122 
TCOON,ioos:station:TCOON:009:1,2015-05-09T02:12:00Z,27.8398,-97.0727,1.848,1111122 
TCOON,ioos:station:TCOON:009:1,2015-05-09T03:12:00Z,27.8398,-97.0727,1.757,1111122 
TCOON,ioos:station:TCOON:009:1,2015-05-09T04:12:00Z,27.8398,-97.0727,1.746,1111122 
TCOON,ioos:station:TCOON:009:1,2015-05-09T05:12:00Z,27.8398,-97.0727,1.705,1111122 
TCOON,ioos:station:TCOON:009:1,2015-05-09T06:24:00Z,27.8398,-97.0727,1.71,1111122 
TCOON,ioos:station:TCOON:009:1,2015-05-09T07:12:00Z,27.8398,-97.0727,1.697,1111122 
TCOON,ioos:station:TCOON:009:1,2015-05-09T08:12:00Z,27.8398,-97.0727,1.755,1111122 
TCOON,ioos:station:TCOON:009:1,2015-05-09T09:12:00Z,27.8398,-97.0727,1.776,1111122 
TCOON,ioos:station:TCOON:009:1,2015-05-09T10:12:00Z,27.8398,-97.0727,1.835,1111122 
TCOON,ioos:station:TCOON:009:1,2015-05-09T11:12:00Z,27.8398,-97.0727,1.859,1111122 
TCOON,ioos:station:TCOON:009:1,2015-05-09T12:12:00Z,27.8398,-97.0727,1.937,1111122 
TCOON,ioos:station:TCOON:009:1,2015-05-09T13:12:00Z,27.8398,-97.0727,1.968,1111122 
TCOON,ioos:station:TCOON:009:1,2015-05-09T14:12:00Z,27.8398,-97.0727,1.99,1111122 
TCOON,ioos:station:TCOON:009:1,2015-05-09T15:12:00Z,27.8398,-97.0727,1.97,1111122 
TCOON,ioos:station:TCOON:009:1,2015-05-09T16:12:00Z,27.8398,-97.0727,1.995,1111122 
TCOON,ioos:station:TCOON:009:1,2015-05-09T17:12:00Z,27.8398,-97.0727,1.97,1111122 
TCOON,ioos:station:TCOON:009:1,2015-05-09T18:18:00Z,27.8398,-97.0727,1.962,1111122 
TCOON,ioos:station:TCOON:009:1,2015-05-09T19:12:00Z,27.8398,-97.0727,1.951,1111122 
TCOON,ioos:station:TCOON:009:1,2015-05-09T20:12:00Z,27.8398,-97.0727,1.94,1111122 
TCOON,ioos:station:TCOON:009:1,2015-05-09T21:18:00Z,27.8398,-97.0727,1.942,1111122 
TCOON,ioos:station:TCOON:009:1,2015-05-09T22:12:00Z,27.8398,-97.0727,1.928,1111122 
TCOON,ioos:station:TCOON:009:1,2015-05-09T23:12:00Z,27.8398,-97.0727,1.912,1111122 
TCOON,ioos:station:TCOON:009:1,2015-05-10T00:12:00Z,27.8398,-97.0727,1.863,1111122 
TCOON,ioos:station:TCOON:009:1,2015-05-10T01:12:00Z,27.8398,-97.0727,1.867,1111122 
TCOON,ioos:station:TCOON:009:1,2015-05-10T02:12:00Z,27.8398,-97.0727,1.807,1111122 
TCOON,ioos:station:TCOON:009:1,2015-05-10T03:12:00Z,27.8398,-97.0727,1.777,1111122 
TCOON,ioos:station:TCOON:009:1,2015-05-10T04:12:00Z,27.8398,-97.0727,1.758,1111122 
TCOON,ioos:station:TCOON:009:1,2015-05-10T05:18:00Z,27.8398,-97.0727,1.688,1111122 
TCOON,ioos:station:TCOON:009:1,2015-05-10T06:18:00Z,27.8398,-97.0727,1.7,1111122 
TCOON,ioos:station:TCOON:009:1,2015-05-10T07:18:00Z,27.8398,-97.0727,1.676,1111122 
TCOON,ioos:station:TCOON:009:1,2015-05-10T08:18:00Z,27.8398,-97.0727,1.699,1111122 
TCOON,ioos:station:TCOON:009:1,2015-05-10T09:12:00Z,27.8398,-97.0727,1.749,1111122 
TCOON,ioos:station:TCOON:009:1,2015-05-10T10:12:00Z,27.8398,-97.0727,1.796,1111122 
TCOON,ioos:station:TCOON:009:1,2015-05-10T11:12:00Z,27.8398,-97.0727,1.83,1111122 
TCOON,ioos:station:TCOON:009:1,2015-05-10T12:12:00Z,27.8398,-97.0727,1.918,1111122 
TCOON,ioos:station:TCOON:009:1,2015-05-10T13:12:00Z,27.8398,-97.0727,1.929,1111122 
TCOON,ioos:station:TCOON:009:1,2015-05-10T14:18:00Z,27.8398,-97.0727,1.968,1111122 
TCOON,ioos:station:TCOON:009:1,2015-05-10T15:12:00Z,27.8398,-97.0727,1.985,1111122 
TCOON,ioos:station:TCOON:009:1,2015-05-10T16:12:00Z,27.8398,-97.0727,1.987,1111122 
TCOON,ioos:station:TCOON:009:1,2015-05-10T17:12:00Z,27.8398,-97.0727,1.984,1111122 
TCOON,ioos:station:TCOON:009:1,2015-05-10T18:12:00Z,27.8398,-97.0727,2.021,1111122 
TCOON,ioos:station:TCOON:009:1,2015-05-10T19:12:00Z,27.8398,-97.0727,1.948,1111122 
TCOON,ioos:station:TCOON:009:1,2015-05-10T20:12:00Z,27.8398,-97.0727,1.95,1111122 
TCOON,ioos:station:TCOON:009:1,2015-05-10T21:12:00Z,27.8398,-97.0727,1.951,1111122 
TCOON,ioos:station:TCOON:009:1,2015-05-10T22:12:00Z,27.8398,-97.0727,1.941,1111122 
TCOON,ioos:station:TCOON:009:1,2015-05-10T23:12:00Z,27.8398,-97.0727,1.929,1111122 
TCOON,ioos:station:TCOON:009:1,2015-05-11T00:12:00Z,27.8398,-97.0727,1.939,1111122 
TCOON,ioos:station:TCOON:009:1,2015-05-11T01:12:00Z,27.8398,-97.0727,1.908,1111122 
TCOON,ioos:station:TCOON:009:1,2015-05-11T02:12:00Z,27.8398,-97.0727,1.874,1111122 
TCOON,ioos:station:TCOON:009:1,2015-05-11T03:12:00Z,27.8398,-97.0727,1.854,1111122 
TCOON,ioos:station:TCOON:009:1,2015-05-11T04:18:00Z,27.8398,-97.0727,1.783,1111122 
TCOON,ioos:station:TCOON:009:1,2015-05-11T05:12:00Z,27.8398,-97.0727,1.761,1111122 
TCOON,ioos:station:TCOON:009:1,2015-05-11T07:06:00Z,27.8398,-97.0727,1.722,1111122 
TCOON,ioos:station:TCOON:009:1,2015-05-11T08:18:00Z,27.8398,-97.0727,1.708,1111122 
TCOON,ioos:station:TCOON:009:1,2015-05-11T09:12:00Z,27.8398,-97.0727,1.726,1111122 
TCOON,ioos:station:TCOON:009:1,2015-05-11T10:12:00Z,27.8398,-97.0727,1.716,1111122 
TCOON,ioos:station:TCOON:009:1,2015-05-11T11:12:00Z,27.8398,-97.0727,1.761,1111122 
TCOON,ioos:station:TCOON:009:1,2015-05-11T12:12:00Z,27.8398,-97.0727,1.853,1111122 
TCOON,ioos:station:TCOON:009:1,2015-05-11T13:18:00Z,27.8398,-97.0727,1.899,1111122 
TCOON,ioos:station:TCOON:009:1,2015-05-11T14:18:00Z,27.8398,-97.0727,1.891,1111122 
TCOON,ioos:station:TCOON:009:1,2015-05-11T15:12:00Z,27.8398,-97.0727,1.931,1111122 
TCOON,ioos:station:TCOON:009:1,2015-05-11T16:18:00Z,27.8398,-97.0727,1.93,1111122 
TCOON,ioos:station:TCOON:009:1,2015-05-11T17:12:00Z,27.8398,-97.0727,1.921,1111122 
TCOON,ioos:station:TCOON:009:1,2015-05-11T18:12:00Z,27.8398,-97.0727,1.912,1111122 
TCOON,ioos:station:TCOON:009:1,2015-05-11T19:12:00Z,27.8398,-97.0727,1.916,1111122 
TCOON,ioos:station:TCOON:009:1,2015-05-11T20:24:00Z,27.8398,-97.0727,1.874,1111122 
TCOON,ioos:station:TCOON:009:1,2015-05-11T21:18:00Z,27.8398,-97.0727,1.889,1111122 
TCOON,ioos:station:TCOON:009:1,2015-05-11T22:18:00Z,27.8398,-97.0727,1.886,1111122 
TCOON,ioos:station:TCOON:009:1,2015-05-11T23:18:00Z,27.8398,-97.0727,1.881,1111122 
TCOON,ioos:station:TCOON:009:1,2015-05-12T00:12:00Z,27.8398,-97.0727,1.901,1111122 
TCOON,ioos:station:TCOON:009:1,2015-05-12T01:12:00Z,27.8398,-97.0727,1.912,1111122 
TCOON,ioos:station:TCOON:009:1,2015-05-12T02:12:00Z,27.8398,-97.0727,1.918,1111122 
TCOON,ioos:station:TCOON:009:1,2015-05-12T03:12:00Z,27.8398,-97.0727,1.94,1111122 
TCOON,ioos:station:TCOON:009:1,2015-05-12T04:18:00Z,27.8398,-97.0727,1.929,1111122 
TCOON,ioos:station:TCOON:009:1,2015-05-12T05:18:00Z,27.8398,-97.0727,1.846,1111122 
TCOON,ioos:station:TCOON:009:1,2015-05-12T07:06:00Z,27.8398,-97.0727,1.925,1111122 
TCOON,ioos:station:TCOON:009:1,2015-05-12T08:18:00Z,27.8398,-97.0727,1.88,1111122 
TCOON,ioos:station:TCOON:009:1,2015-05-12T09:12:00Z,27.8398,-97.0727,1.852,1111122 
TCOON,ioos:station:TCOON:009:1,2015-05-12T10:12:00Z,27.8398,-97.0727,1.948,1111122 
TCOON,ioos:station:TCOON:009:1,2015-05-12T11:18:00Z,27.8398,-97.0727,1.758,1111122 
TCOON,ioos:station:TCOON:009:1,2015-05-12T12:12:00Z,27.8398,-97.0727,1.883,1111122 
TCOON,ioos:station:TCOON:009:1,2015-05-12T13:12:00Z,27.8398,-97.0727,1.952,1111122 
TCOON,ioos:station:TCOON:009:1,2015-05-12T14:18:00Z,27.8398,-97.0727,2.026,1111122 
TCOON,ioos:station:TCOON:009:1,2015-05-12T15:24:00Z,27.8398,-97.0727,2.017,1111122 
TCOON,ioos:station:TCOON:009:1,2015-05-12T16:12:00Z,27.8398,-97.0727,2.035,1111122 
TCOON,ioos:station:TCOON:009:1,2015-05-12T17:18:00Z,27.8398,-97.0727,1.98,1111122 
TCOON,ioos:station:TCOON:009:1,2015-05-12T18:18:00Z,27.8398,-97.0727,1.988,1111122 
TCOON,ioos:station:TCOON:009:1,2015-05-12T19:18:00Z,27.8398,-97.0727,1.991,1111122 
TCOON,ioos:station:TCOON:009:1,2015-05-12T20:18:00Z,27.8398,-97.0727,1.927,1111122 
TCOON,ioos:station:TCOON:009:1,2015-05-12T21:12:00Z,27.8398,-97.0727,1.913,1111122 
TCOON,ioos:station:TCOON:009:1,2015-05-12T22:18:00Z,27.8398,-97.0727,1.853,1111122 
TCOON,ioos:station:TCOON:009:1,2015-05-12T23:12:00Z,27.8398,-97.0727,1.781,1111122 
TCOON,ioos:station:TCOON:009:1,2015-05-13T00:18:00Z,27.8398,-97.0727,1.87,1111122 